This is the latest recevied weather packets stored in our database for station/object JO1YDG-13. If no packets are shown the sender has not sent any weather packets the latest 10 day(s).
| Time | Temp. | Humidity | Pressure | Rain* | Wind** | Luminosity | Snow |
|---|---|---|---|---|---|---|---|
| 1777947429 | 20.56° C | 24% | 991.1 hPa | 0 mm | - | - | - |
| 1777947130 | 21.11° C | 25% | 991.2 hPa | 0 mm | - | - | - |
| 1777946830 | 21.11° C | 24% | 991.2 hPa | 0 mm | - | - | - |
| 1777946530 | 21.11° C | 24% | 991.3 hPa | 0 mm | - | - | - |
| 1777946230 | 20.56° C | 25% | 991.3 hPa | 0 mm | - | - | - |
| 1777945929 | 20.56° C | 25% | 991.3 hPa | 0 mm | - | - | - |
| 1777945629 | 20.56° C | 27% | 991.4 hPa | 0 mm | - | - | - |
| 1777945331 | 20.56° C | 25% | 991.4 hPa | 0 mm | - | - | - |
| 1777945031 | 21.11° C | 25% | 991.5 hPa | 0 mm | - | - | - |
| 1777944731 | 21.11° C | 23% | 991.5 hPa | 0 mm | - | - | - |
| 1777944431 | 20.56° C | 26% | 991.5 hPa | 0 mm | - | - | - |
| 1777944130 | 20° C | 24% | 991.5 hPa | 0 mm | - | - | - |
| 1777943830 | 20.56° C | 26% | 991.5 hPa | 0 mm | - | - | - |
| 1777943530 | 20.56° C | 24% | 991.6 hPa | 0 mm | - | - | - |
| 1777943230 | 19.44° C | 25% | 991.6 hPa | 0 mm | - | - | - |
| 1777942929 | 19.44° C | 25% | 991.6 hPa | 0 mm | - | - | - |
| 1777942629 | 20° C | 28% | 991.6 hPa | 0 mm | - | - | - |
| 1777942330 | 19.44° C | 25% | 991.6 hPa | 0 mm | - | - | - |
| 1777942030 | 19.44° C | 25% | 991.7 hPa | 0 mm | - | - | - |
| 1777941730 | 19.44° C | 25% | 991.7 hPa | 0 mm | - | - | - |
| 1777941429 | 17.78° C | 28% | 991.6 hPa | 0 mm | - | - | - |
| 1777941131 | 18.89° C | 28% | 991.6 hPa | 0 mm | - | - | - |
| 1777940831 | 18.89° C | 28% | 991.6 hPa | 0 mm | - | - | - |
| 1777940531 | 18.89° C | 31% | 991.6 hPa | 0 mm | - | - | - |
| 1777940230 | 17.78° C | 28% | 991.6 hPa | 0 mm | - | - | - |
* Rain latest hour (hover to see other rain measurements)
** Current wind speed in m/s (hover to see current wind gust speed)